This is the latest recevied weather packets stored in our database for station/object W0AKY-13. If no packets are shown the sender has not sent any weather packets the latest 10 day(s).
| Time | Temp. | Humidity | Pressure | Rain* | Wind** | Luminosity | Snow |
|---|---|---|---|---|---|---|---|
| 1777832701 | 23.89° C | 35% | 1012.8 hPa | 0 mm | - | 729 W/m² | - |
| 1777832398 | 22.78° C | 38% | 1012.8 hPa | 0 mm | - | 682 W/m² | - |
| 1777832095 | 22.78° C | 35% | 1013 hPa | 0 mm | - | 629 W/m² | - |
| 1777831790 | 22.78° C | 34% | 1013.1 hPa | 0 mm | - | 625 W/m² | - |
| 1777831489 | 22.78° C | 37% | 1013.1 hPa | 0 mm | - | 629 W/m² | - |
| 1777831185 | 23.33° C | 36% | 1013.2 hPa | 0 mm | - | 444 W/m² | - |
| 1777830883 | 23.33° C | 35% | 1013.1 hPa | 0 mm | - | 627 W/m² | - |
| 1777830579 | 22.22° C | 36% | 1013 hPa | 0 mm | - | 672 W/m² | - |
| 1777830278 | 22.78° C | 37% | 1013.3 hPa | 0 mm | - | 674 W/m² | - |
| 1777829978 | 22.22° C | 39% | 1013.3 hPa | 0 mm | - | 632 W/m² | - |
| 1777829674 | 22.22° C | 40% | 1013.3 hPa | 0 mm | - | 585 W/m² | - |
| 1777829371 | 22.22° C | 41% | 1013.2 hPa | 0 mm | - | 538 W/m² | - |
| 1777829068 | 22.22° C | 37% | 1013.5 hPa | 0 mm | - | 408 W/m² | - |
| 1777828764 | 21.67° C | 39% | 1013.4 hPa | 0 mm | - | 642 W/m² | - |
| 1777828461 | 22.22° C | 40% | 1013.2 hPa | 0 mm | - | 649 W/m² | - |
| 1777828159 | 21.67° C | 38% | 1013.4 hPa | 0 mm | - | 618 W/m² | - |
| 1777827855 | 21.67° C | 39% | 1013.4 hPa | 0 mm | - | 629 W/m² | - |
| 1777827552 | 21.11° C | 38% | 1013.3 hPa | 0 mm | - | 648 W/m² | - |
| 1777827250 | 21.11° C | 41% | 1013.5 hPa | 0 mm | - | 655 W/m² | - |
| 1777826945 | 20.56° C | 41% | 1013.6 hPa | 0 mm | - | 563 W/m² | - |
| 1777826643 | 21.11° C | 41% | 1013.4 hPa | 0 mm | - | 449 W/m² | - |
| 1777826339 | 20.56° C | 41% | 1013.6 hPa | 0 mm | - | 541 W/m² | - |
| 1777826037 | 20.56° C | 40% | 1013.5 hPa | 0 mm | - | 562 W/m² | - |
| 1777825733 | 20.56° C | 44% | 1013.7 hPa | 0 mm | - | 411 W/m² | - |
| 1777825431 | 20.56° C | 41% | 1013.4 hPa | 0 mm | - | 433 W/m² | - |
* Rain latest hour (hover to see other rain measurements)
** Current wind speed in m/s (hover to see current wind gust speed)